Wind_Speed
30 29 28 28 26 25 24 24 24 25 26 27 27 27 26 24 23 23 23 23 23 24 24 23 22 21 21 20 19 18 16 15 14 13 12 12 11 11 11 10 10 10 10 10 9 8 8 8 8 9 10 11 12 12 12 11 10 9 7 5 3 2 1 1 3 5 6 8 10 12 14 15 16 18 20 21 22 24 25 26 28 28 29 29 29
29 28 28 29 28 26 25 24 24 25 26 27 27 27 26 25 24 23 24 24 24 24 24 24 23 22 22 21 21 19 18 16 16 15 13 12 12 12 12 11 11 12 11 11 11 11 11 10 10 11 12 12 13 13 12 11 10 8 7 6 4 3 3 3 4 5 6 9 11 12 14 16 17 18 20 22 23 25 26 27 27 28 28 27 25
27 27 27 28 28 27 27 26 26 26 26 27 27 26 26 26 25 24 24 24 24 24 23 23 24 24 23 23 22 21 19 18 16 16 15 13 12 13 13 13 13 13 13 13 13 13 13 12 12 12 13 14 14 13 13 12 10 9 8 7 6 6 6 6 6 7 8 10 12 14 15 17 19 20 22 23 25 26 27 27 27 26 24 21 19
26 26 26 27 28 28 28 27 27 27 27 27 27 26 25 26 26 25 25 25 25 24 23 23 24 25 25 24 23 22 21 19 17 16 16 14 13 13 14 14 13 14 14 14 15 15 15 15 14 14 14 15 16 15 15 13 12 11 10 9 9 9 10 10 10 10 10 11 13 16 17 18 20 21 23 24 25 26 27 26 23 21 18 16 17
24 24 25 26 27 27 28 28 28 28 28 27 27 26 26 26 26 26 25 25 25 24 23 23 24 25 26 25 24 23 22 20 18 17 17 16 15 14 14 15 14 14 14 15 16 16 16 16 17 17 16 16 17 17 17 16 15 14 13 12 12 12 13 14 14 15 14 14 14 16 18 20 21 22 22 24 24 23 22 20 18 16 13 14 18
23 23 23 25 27 27 27 28 28 28 28 27 27 26 26 26 26 26 26 26 26 25 23 23 24 24 25 25 24 23 22 21 20 18 17 17 16 15 15 15 15 15 14 15 16 17 17 17 18 19 19 18 18 18 18 18 17 16 15 14 15 15 16 16 18 18 19 18 17 18 20 21 21 21 21 21 21 19 17 15 13 12 12 15 21
22 21 21 24 26 26 27 27 27 27 27 27 27 27 27 27 26 26 26 26 27 26 24 23 23 23 23 24 24 24 23 22 21 19 17 17 17 16 15 16 16 16 15 15 15 16 17 17 18 19 20 20 20 19 19 19 19 18 17 17 17 17 18 18 20 20 21 22 20 20 21 21 21 20 19 19 17 16 15 12 10 11 16 21 25
23 21 20 22 24 24 25 26 26 27 27 27 27 26 27 28 27 26 26 26 27 27 26 24 23 23 23 23 24 24 24 22 22 20 18 18 17 16 16 16 16 16 16 16 16 16 16 16 17 18 19 21 21 21 21 21 21 20 19 18 19 18 19 20 21 23 24 24 23 22 21 21 21 19 18 17 14 12 13 14 13 15 20 25 26
24 21 20 21 22 22 23 24 26 26 26 27 27 26 27 27 27 27 26 27 27 27 27 25 24 24 24 23 23 25 25 23 21 20 18 17 17 16 15 15 16 17 17 16 16 16 16 16 16 17 18 20 22 22 23 23 22 22 21 21 20 20 21 21 23 24 25 26 25 23 21 20 20 19 18 16 13 12 15 18 20 20 21 24 25
26 22 20 20 21 21 22 23 24 25 26 27 27 27 27 26 27 27 27 27 26 26 26 26 25 24 25 25 24 24 25 22 20 19 17 16 16 16 16 15 16 17 18 17 16 16 15 15 16 16 17 18 21 22 23 24 24 23 23 23 22 22 22 23 23 24 26 26 24 22 20 18 18 19 18 17 16 16 18 21 23 24 24 25 26
28 23 20 20 20 21 21 21 22 24 25 26 26 27 27 26 26 27 27 26 26 26 26 25 25 24 24 25 25 25 24 22 20 19 17 16 16 16 17 16 16 17 18 18 17 16 15 15 15 16 17 17 19 21 22 23 24 24 24 24 24 23 23 23 24 24 25 24 22 20 18 17 18 19 17 17 18 19 21 23 26 27 28 29 28
30 25 22 21 20 21 21 21 21 21 23 24 25 26 27 26 26 27 27 26 26 26 26 26 25 24 23 24 25 24 23 21 20 19 18 17 16 17 17 17 17 17 17 18 18 17 16 15 15 15 16 17 17 18 19 20 22 23 23 23 24 24 23 23 23 22 21 21 19 18 17 17 19 18 18 18 19 20 22 24 27 29 30 32 33
32 28 25 23 21 21 21 21 21 20 20 21 23 25 27 27 26 26 26 26 26 26 26 26 26 25 24 23 24 24 22 21 21 20 19 18 18 17 18 18 18 18 17 18 19 18 17 16 16 15 15 16 16 17 17 18 19 20 21 22 22 22 21 21 20 19 19 19 18 15 15 19 20 18 17 19 20 22 23 23 26 30 32 34 35
34 30 27 25 22 22 23 22 21 21 20 20 21 23 25 27 27 26 26 27 27 26 26 27 27 27 26 25 24 24 23 22 21 20 19 18 18 18 18 18 18 19 19 18 19 19 18 16 16 15 15 15 15 15 16 16 16 16 17 18 17 16 17 17 18 19 19 19 18 12 11 18 21 17 17 20 22 22 23 24 26 30 34 36 36
36 32 29 28 25 23 24 23 22 22 21 22 21 21 23 25 26 27 27 28 28 27 26 26 26 27 26 26 26 24 23 23 22 20 18 17 18 19 19 19 20 20 20 20 19 18 18 17 16 16 16 15 15 15 15 14 13 14 14 15 14 15 16 17 19 22 22 22 19 13 10 15 20 18 18 21 23 22 23 25 27 31 35 37 37
38 36 32 31 28 25 24 24 24 24 23 23 23 22 23 24 26 27 28 28 28 28 27 27 27 27 26 26 26 25 24 23 21 20 19 17 18 19 19 20 21 20 21 21 19 18 18 16 16 16 16 16 15 15 15 14 14 14 14 14 15 16 18 19 20 22 23 23 21 15 12 15 19 18 17 20 22 22 22 24 27 32 36 39 39
38 38 35 32 30 28 26 25 26 25 25 24 24 24 24 24 25 27 28 29 29 29 28 28 27 28 28 27 27 26 25 24 21 20 19 18 19 20 20 21 21 21 21 21 20 20 18 17 16 17 17 17 17 17 17 17 17 16 16 16 17 18 19 20 21 22 22 22 19 15 14 16 17 17 16 17 20 21 22 25 28 33 36 39 39
36 38 36 34 32 29 28 27 27 27 26 25 25 25 25 25 26 27 28 28 28 28 28 28 28 28 29 29 28 27 26 25 23 21 21 21 21 21 21 22 22 22 22 22 22 21 20 18 17 17 17 17 18 19 19 19 19 19 19 20 20 21 21 22 23 24 23 21 18 15 14 16 17 16 14 15 19 23 26 27 30 33 35 38 38
35 36 35 34 33 31 29 29 28 28 27 26 26 26 26 27 27 28 28 28 27 28 28 28 28 28 29 29 29 28 27 26 25 24 23 23 23 23 22 22 23 23 23 23 23 22 21 20 19 18 18 18 20 21 21 22 22 22 23 24 24 23 23 24 25 26 25 24 20 17 15 16 18 20 19 18 22 26 28 29 32 34 36 38 37
33 34 34 35 35 33 32 31 29 28 28 29 28 27 27 28 29 29 29 29 28 28 28 28 28 29 29 30 29 28 27 26 26 26 24 24 24 24 24 23 23 24 24 25 24 23 22 21 20 19 19 20 21 22 22 23 23 24 25 26 25 25 25 26 26 26 26 26 24 21 18 15 17 23 25 26 28 30 31 32 34 35 36 37 36
30 32 34 35 36 34 33 32 30 30 31 31 31 29 28 28 29 30 31 30 29 28 28 28 28 29 30 30 30 30 28 27 27 26 25 25 25 25 25 24 24 25 26 26 26 26 24 23 22 21 21 22 23 24 24 25 25 26 27 26 26 26 26 26 26 26 28 28 27 25 23 19 18 21 26 30 32 33 33 34 36 36 35 34 34
29 31 33 34 35 34 34 33 33 33 34 34 34 32 30 29 30 31 32 31 31 29 28 28 28 28 29 30 31 31 30 29 28 27 26 26 26 26 26 26 25 26 27 28 28 28 27 25 25 24 24 24 24 25 25 26 27 28 28 28 27 27 26 26 26 27 28 30 30 29 28 26 24 24 27 31 33 34 34 35 36 36 34 32 31
29 30 31 32 33 33 34 35 36 36 37 37 37 34 32 31 30 31 32 33 33 32 30 29 28 28 29 30 30 31 31 30 30 28 27 27 27 27 27 27 27 28 29 30 29 29 29 28 28 27 26 25 26 26 26 27 28 28 29 28 28 27 26 26 27 28 29 30 31 32 32 31 30 30 31 32 33 35 37 37 37 36 33 28 28
31 31 30 31 32 33 34 37 38 39 39 39 38 36 33 32 31 31 32 33 34 34 32 30 29 29 29 29 30 30 30 30 30 28 27 27 28 28 28 28 28 29 30 30 30 30 30 30 29 28 27 26 26 26 26 27 28 29 29 29 29 28 27 27 27 28 29 30 32 33 33 33 34 34 34 33 34 36 39 39 38 37 34 29 29
34 33 31 30 31 33 35 37 38 39 40 41 39 37 35 33 32 31 32 33 34 35 34 32 31 30 29 29 29 29 29 29 29 27 26 26 27 27 28 28 28 29 29 30 31 32 31 30 29 29 28 27 26 26 26 26 27 28 29 30 30 29 29 28 28 28 29 31 32 32 33 34 35 35 35 35 36 37 39 39 39 38 34 31 31
37 35 32 31 31 32 35 37 38 39 41 42 40 37 35 34 33 32 32 32 33 34 34 33 32 31 30 30 29 29 28 28 27 26 24 24 24 25 26 26 26 28 29 30 31 32 31 29 29 29 28 27 26 26 25 25 26 28 29 30 30 30 29 29 29 29 30 32 33 33 34 35 35 35 35 36 37 38 38 39 37 34 32 31 31
39 37 35 33 32 33 35 36 37 39 41 41 40 38 36 35 34 33 33 33 33 34 35 34 34 32 31 30 30 29 28 27 26 24 22 21 21 21 22 23 24 26 29 30 30 30 29 29 29 29 28 27 26 25 24 24 25 26 28 29 30 30 30 30 31 32 32 33 34 34 35 35 34 34 35 36 37 37 37 35 33 31 30 30 30
40 39 38 36 35 34 35 35 37 39 40 40 39 37 35 34 34 34 34 33 33 34 35 34 33 31 30 29 29 27 25 23 22 21 19 18 19 21 22 23 25 26 28 29 29 30 29 29 29 29 28 27 25 24 24 24 25 26 28 29 30 31 31 32 33 34 34 34 34 35 35 34 33 34 34 34 35 34 33 32 30 30 30 30 29
41 40 40 39 38 37 36 36 38 39 40 39 38 36 34 34 33 33 32 31 30 31 32 31 29 28 26 26 25 24 22 20 20 21 22 22 23 24 24 24 26 26 27 27 29 29 30 29 29 28 27 26 25 25 25 25 26 27 28 29 30 32 33 34 34 34 34 33 34 34 34 33 32 31 31 31 31 31 30 30 30 31 32 31 29
43 42 42 41 41 40 38 38 39 40 40 39 37 35 34 33 31 29 27 26 25 26 26 26 25 25 24 23 22 22 22 22 23 24 25 26 26 25 25 25 27 27 26 27 28 29 29 29 27 26 26 26 26 27 27 27 28 29 29 29 31 32 33 33 33 33 33 33 33 34 33 31 29 28 28 29 28 28 29 30 31 31 32 31 30
43 43 43 44 43 41 39 38 39 40 40 38 36 34 33 31 28 26 24 23 23 23 23 23 24 24 25 25 25 25 25 25 25 25 25 26 26 26 25 25 26 26 26 26 28 29 29 29 28 26 25 25 25 26 27 28 30 31 30 30 30 31 31 31 30 30 32 33 33 33 34 33 30 28 28 27 27 27 29 30 31 31 32 32 32
44 43 44 45 44 43 41 40 40 40 40 38 35 33 32 30 29 27 25 24 24 24 24 24 25 25 26 27 28 27 26 25 24 23 24 25 25 25 24 23 24 24 25 26 28 29 28 28 28 27 26 24 24 24 25 26 29 30 30 30 30 30 30 31 30 31 33 33 31 31 33 33 32 30 28 27 27 28 29 30 31 32 32 32 32
45 45 46 47 47 45 43 41 41 41 40 38 35 33 31 31 30 29 28 27 26 26 26 26 27 27 27 27 26 26 25 25 24 24 24 25 25 25 24 23 23 22 23 25 27 27 26 26 26 26 27 25 24 25 26 26 27 27 28 29 30 30 31 31 31 32 33 32 31 31 32 32 30 30 29 29 30 31 30 31 32 32 31 31 31
46 46 45 47 47 46 44 43 43 43 41 38 35 33 32 32 31 30 29 28 27 26 26 27 28 28 28 26 25 25 25 25 25 25 25 25 25 26 26 25 24 23 23 24 25 25 25 25 25 26 27 27 28 29 28 26 25 26 27 30 31 32 33 32 30 29 31 31 31 32 32 30 29 29 30 32 33 32 31 32 33 33 30 30 30
45 43 41 41 42 43 43 43 45 45 43 39 35 35 35 34 32 30 29 28 27 27 27 27 28 28 28 27 27 26 25 25 25 25 25 26 26 26 26 26 26 25 24 23 24 25 26 26 26 27 28 28 30 31 29 27 27 27 29 30 31 33 35 34 30 29 30 31 31 31 30 29 29 31 32 33 34 33 32 31 32 32 30 29 30
38 38 39 39 39 40 40 41 44 46 43 39 37 38 37 35 32 30 30 30 30 29 28 28 28 27 27 27 26 25 25 25 24 24 25 25 26 26 26 26 26 26 25 24 24 26 27 28 28 29 30 29 30 31 31 30 29 29 29 30 31 33 35 36 34 33 31 30 31 32 30 30 31 33 34 35 35 35 33 31 30 30 30 30 31
38 40 42 41 38 37 38 41 43 45 42 39 38 38 37 35 33 33 33 33 33 32 30 28 27 26 25 25 24 24 24 24 24 24 25 25 26 26 26 25 25 25 25 25 25 27 28 29 29 29 30 30 30 31 31 31 30 29 29 30 31 32 34 35 36 35 34 33 35 34 32 31 33 33 35 36 35 32 30 29 29 30 30 31 32
41 43 45 45 41 39 39 41 42 42 40 39 38 38 37 36 35 35 35 34 32 31 29 27 26 25 24 24 24 24 25 25 26 26 27 27 27 27 26 25 26 26 26 26 27 28 28 28 29 30 30 30 30 30 30 31 32 31 30 30 31 33 36 36 36 36 38 37 36 35 34 33 33 32 31 32 31 30 29 29 30 30 30 31 33
42 43 45 45 43 41 41 42 43 42 41 39 39 39 38 36 34 33 34 33 31 29 28 26 25 24 24 24 25 26 27 28 29 29 29 30 30 30 29 28 29 29 29 29 29 28 28 29 31 31 30 29 30 30 30 30 31 32 33 33 34 35 37 36 35 36 37 36 33 34 35 34 31 29 28 28 29 30 30 29 29 30 30 31 32
42 44 44 44 43 42 41 42 43 43 42 41 41 40 38 36 35 34 33 32 30 29 27 25 25 25 25 26 28 29 29 29 30 31 32 33 33 33 33 32 32 32 32 32 31 30 31 32 32 31 30 31 31 30 31 31 32 34 35 36 36 36 36 36 35 35 36 36 34 33 33 31 28 27 27 27 28 29 29 29 29 30 30 30 30
35 39 42 45 45 43 41 42 43 42 42 42 41 39 37 36 36 35 32 30 29 28 27 26 26 27 28 29 30 31 31 31 31 32 33 34 34 34 35 35 35 35 35 35 35 34 33 33 32 32 33 33 32 31 33 34 35 34 35 36 37 36 36 37 36 36 37 37 36 33 31 29 27 27 27 27 28 28 28 29 30 30 30 30 30
31 33 36 41 44 42 40 40 42 42 43 43 41 38 37 37 36 35 33 32 31 30 29 29 29 30 31 32 33 33 33 33 33 33 33 33 33 34 35 35 36 36 36 36 35 35 34 33 33 34 35 36 34 34 35 36 35 34 35 37 38 38 38 38 38 37 35 34 32 30 29 28 26 26 26 28 29 29 29 29 30 30 31 31 30
34 30 28 31 38 41 40 40 41 41 42 43 42 40 39 38 38 38 36 35 34 34 33 33 33 34 34 35 35 34 34 34 34 33 33 33 32 32 33 33 34 35 35 35 35 34 33 34 35 34 35 36 36 35 35 35 35 35 35 35 36 37 36 36 35 33 30 28 27 26 25 26 26 26 27 28 29 29 30 30 30 31 31 31 30
34 31 28 27 31 37 40 41 42 41 40 40 40 41 41 40 39 39 38 37 37 36 36 36 36 36 36 36 35 35 34 33 33 32 32 32 31 31 31 31 32 33 33 33 34 33 33 35 35 35 35 36 37 36 36 37 37 36 36 36 36 36 36 34 32 30 28 27 26 24 24 26 26 26 27 28 29 29 30 30 31 31 31 30 30
21 23 25 23 23 28 33 36 38 39 41 39 37 38 40 41 40 39 37 37 38 38 37 37 37 37 36 35 35 34 33 33 33 32 31 31 30 29 29 29 29 30 30 31 31 32 33 34 35 35 35 36 36 36 37 37 36 36 36 35 35 35 35 33 31 29 27 26 25 25 25 26 27 27 28 29 29 30 30 30 30 30 30 30 31
15 16 20 21 21 21 25 28 29 31 33 34 33 33 33 33 35 36 36 36 37 38 38 37 35 33 33 32 31 32 32 31 30 30 29 29 28 27 27 27 27 27 28 29 31 33 34 36 37 37 37 36 36 36 36 35 33 32 32 31 31 32 32 31 30 29 28 28 27 27 27 27 28 29 29 30 30 30 29 29 29 29 30 31 32
14 14 17 21 23 22 22 23 24 23 21 21 24 26 25 24 27 30 31 31 32 32 32 32 30 28 28 28 27 27 27 27 27 27 26 26 26 26 26 26 27 28 29 31 32 33 34 35 35 35 35 35 35 34 32 30 28 28 28 28 29 30 30 30 30 29 28 28 28 28 28 29 29 30 31 31 31 30 30 30 30 31 32 33 34
13 12 12 15 18 20 21 19 19 21 21 18 18 19 20 20 22 24 25 26 25 23 22 23 25 25 24 23 23 22 23 23 23 24 24 24 25 26 27 28 29 29 30 30 31 31 32 32 32 32 31 31 30 28 27 26 27 27 27 28 28 28 29 29 29 28 28 28 29 28 29 30 30 31 31 32 31 31 32 32 33 33 34 35 36
10 12 11 11 12 15 17 14 11 12 17 20 21 22 21 19 19 20 20 21 23 23 22 21 21 21 21 21 22 22 22 23 24 26 27 27 26 27 28 29 30 30 30 29 30 30 30 29 29 29 28 27 27 26 26 26 27 27 27 27 27 26 27 28 28 28 28 29 29 29 29 30 31 31 31 32 32 32 33 34 35 36 36 36 36
6 6 7 8 9 11 14 13 11 10 10 12 15 19 21 20 20 21 21 19 18 20 22 22 20 19 20 21 22 22 23 25 27 28 27 26 26 28 29 30 31 31 30 29 29 28 28 28 27 27 27 26 26 27 27 26 26 26 26 25 25 25 26 27 28 29 29 30 30 30 31 31 31 31 32 32 33 34 35 36 37 38 37 37 37
3 4 4 5 5 7 8 9 10 11 11 11 11 13 14 15 15 19 23 22 18 15 17 19 20 21 21 22 22 22 24 27 28 27 26 25 27 28 29 29 29 29 28 28 28 28 28 28 28 27 27 27 26 26 25 25 24 24 24 24 25 25 26 27 28 29 30 31 31 31 31 31 32 33 34 35 35 36 37 37 38 38 38 38 37
Wind_Direction
222 221 220 220 220 219 219 220 220 219 220 222 222 222 223 223 221 222 223 224 226 228 229 226 222 222 225 228 231 233 234 237 243 243 243 248 253 257 257 251 248 249 242 229 217 208 204 205 202 198 192 185 180 176 175 177 178 177 180 180 175 173 109 24 1 355 347 341 343 342 337 336 336 335 333 332 330 328 326 326 326 327 331 334 335
222 220 219 221 221 219 219 219 220 220 220 222 223 222 223 224 223 223 224 225 227 227 228 227 225 224 224 227 232 236 237 238 243 248 248 250 253 257 258 254 250 250 249 243 232 221 214 212 209 206 202 198 193 190 190 191 194 196 201 204 214 235 256 286 313 323 322 320 323 326 324 324 325 325 323 321 319 318 319 321 323 326 330 334 335
223 222 220 220 221 220 220 219 220 221 221 222 223 223 223 224 224 224 225 228 229 230 229 227 227 227 226 227 230 236 239 239 243 249 252 252 253 255 256 254 251 251 251 250 246 236 225 220 217 214 212 209 207 206 206 207 209 213 218 223 233 249 266 277 287 297 304 309 312 315 316 318 319 319 316 316 315 314 316 319 322 327 330 331 330
224 223 221 220 221 221 221 220 219 220 221 221 223 224 224 223 223 224 225 228 231 233 231 228 227 228 229 229 230 234 239 240 244 251 253 253 252 252 254 254 253 253 254 253 251 246 238 229 225 223 221 219 219 219 219 220 222 225 231 241 250 259 273 282 286 289 292 296 302 306 309 311 314 315 313 311 311 311 314 318 325 331 333 329 327
225 224 221 220 221 221 222 221 220 219 221 222 222 223 225 224 223 223 224 227 232 234 234 231 229 228 230 232 232 233 238 241 244 248 252 253 251 250 252 255 256 256 256 257 255 253 247 238 232 230 229 227 227 228 229 230 231 234 240 249 260 269 277 285 290 293 295 294 297 301 304 306 309 310 307 304 304 308 314 324 334 338 333 326 326
228 227 223 221 220 221 221 221 221 220 220 222 222 222 225 225 223 223 224 226 230 234 234 233 233 232 231 233 234 234 235 240 243 243 246 249 250 250 251 256 260 261 260 260 260 258 255 248 240 236 235 236 235 235 236 238 238 241 246 253 262 270 276 283 288 292 296 298 298 299 302 304 306 307 306 304 308 319 327 338 348 340 327 321 322
227 228 225 224 223 221 221 221 221 221 220 222 223 223 225 227 225 223 224 226 229 234 234 232 233 235 232 232 235 236 235 238 240 240 240 244 247 249 252 255 260 264 265 265 264 263 261 256 249 242 239 240 241 241 242 244 246 247 250 255 261 268 275 281 287 291 295 298 298 299 301 305 308 310 311 311 319 332 335 339 348 338 324 321 321
225 228 225 225 225 223 222 221 221 221 221 222 224 224 224 228 228 226 225 226 229 233 236 233 229 231 232 231 232 237 237 236 237 237 236 240 244 246 249 255 258 261 264 266 268 268 267 262 255 248 244 242 242 244 245 248 251 252 255 258 263 269 275 281 287 291 295 298 300 302 302 306 312 312 311 314 323 334 331 331 342 340 326 320 320
224 229 225 224 226 225 222 221 220 220 221 221 224 225 225 227 230 229 227 227 229 232 236 236 230 226 229 230 230 234 238 237 235 236 235 238 244 246 245 250 257 261 262 263 266 270 270 269 262 253 247 244 243 244 246 249 252 255 259 262 265 270 275 280 285 289 293 297 300 301 301 305 312 311 312 318 326 335 336 336 339 337 324 317 318
225 230 225 222 225 225 224 222 220 220 220 219 222 225 226 227 229 230 229 227 228 231 235 238 235 227 225 228 230 232 236 237 235 235 235 235 241 247 246 246 252 259 263 264 264 266 269 271 269 262 253 246 245 245 246 249 253 256 259 263 266 270 274 278 283 288 292 295 296 297 297 301 311 314 317 324 329 337 341 338 334 330 324 319 319
225 231 227 222 223 224 225 224 223 222 222 220 220 223 227 228 227 230 232 229 227 230 234 238 240 233 226 227 230 231 233 235 233 231 233 234 236 243 248 248 248 252 260 264 264 265 266 267 267 266 262 255 250 248 247 248 251 255 258 263 267 269 272 278 283 287 290 292 293 293 293 301 313 318 321 326 330 338 340 335 330 328 328 327 325
225 229 229 225 223 223 225 226 225 225 225 224 222 222 226 228 228 228 232 231 228 228 232 236 240 240 232 228 230 232 232 232 231 228 229 232 234 239 245 248 249 250 254 261 265 265 265 266 265 263 262 261 258 254 251 249 250 253 257 262 266 271 275 279 283 285 289 290 290 290 294 304 313 318 322 326 330 335 336 332 329 327 329 328 327
223 227 230 228 225 224 225 227 228 228 229 228 226 224 225 228 229 228 230 232 230 228 229 233 238 241 240 233 231 233 233 232 230 227 226 229 232 237 241 245 249 252 253 257 261 263 263 263 265 264 262 262 259 257 255 251 251 252 255 259 264 270 275 279 283 287 290 291 289 287 296 306 310 315 322 324 328 331 331 332 330 326 324 323 325
222 225 228 228 227 226 225 227 229 230 231 230 229 228 227 228 230 229 229 231 232 229 227 230 234 237 240 240 237 234 233 234 233 229 228 229 232 236 240 244 247 251 254 255 257 260 261 260 261 263 264 263 259 257 254 250 248 249 251 256 260 265 271 277 285 291 293 294 290 280 286 300 304 311 320 322 324 327 330 334 331 322 318 320 324
223 225 226 227 228 227 226 227 228 229 230 230 230 230 229 229 230 230 229 230 232 231 229 229 232 234 237 241 242 239 235 233 233 232 230 231 233 236 240 244 247 250 253 256 258 259 260 259 258 258 261 262 259 256 251 245 240 239 242 249 256 264 272 279 286 290 292 294 290 275 270 288 297 309 320 321 321 327 332 332 324 315 315 322 327
224 226 225 227 229 229 229 228 227 228 229 229 230 231 230 229 229 231 232 232 232 232 230 229 231 234 236 238 241 243 240 236 234 234 233 233 234 238 242 246 250 251 253 256 260 261 261 260 258 256 257 259 257 252 248 243 240 238 240 247 256 265 272 276 279 281 284 286 282 272 269 281 294 308 318 320 324 328 326 318 311 310 315 323 328
225 228 227 228 230 230 231 231 230 230 229 228 230 231 231 231 230 231 234 235 234 233 232 230 230 233 235 237 238 242 244 242 239 237 236 235 235 240 246 251 254 253 253 256 258 262 264 263 261 258 255 255 254 251 247 246 247 249 251 256 263 268 273 279 280 279 280 277 269 264 271 281 292 304 314 320 321 314 303 300 305 311 317 324 327
225 230 229 230 232 232 232 233 233 233 233 230 230 231 231 231 230 232 235 237 239 238 236 234 233 234 236 237 237 239 243 245 244 241 241 241 241 242 246 251 253 251 251 254 256 260 263 263 262 261 256 254 252 250 249 249 251 255 260 265 269 273 278 285 287 287 287 279 266 263 270 277 288 298 303 303 296 289 289 298 308 314 319 324 324
226 230 232 233 233 232 232 232 233 236 237 234 231 230 231 231 231 232 235 238 240 241 240 237 236 236 237 239 238 239 241 243 244 242 242 243 244 245 245 246 249 249 250 252 254 256 260 261 261 261 258 256 252 249 248 248 251 255 260 264 268 273 279 284 287 288 288 283 277 276 276 281 291 297 297 290 285 288 297 307 313 315 320 323 320
227 229 233 235 233 231 231 231 232 235 238 237 234 230 230 231 231 231 234 236 239 241 242 240 238 236 238 239 240 240 239 240 241 242 242 242 244 246 245 245 246 248 249 251 252 253 256 258 259 259 257 255 254 251 250 249 250 254 257 261 266 271 277 282 284 286 286 284 283 283 281 284 292 296 297 296 294 298 305 310 312 314 317 319 316
229 230 234 236 234 232 230 229 231 234 237 238 237 234 232 232 231 231 232 234 236 239 241 242 240 238 238 239 241 242 239 238 240 242 242 242 243 245 246 245 246 248 250 251 252 253 253 254 256 256 255 254 253 252 252 251 252 254 256 260 264 269 274 278 281 283 284 284 285 285 283 282 284 289 293 295 296 299 304 307 309 311 314 317 314
230 232 234 235 235 233 229 229 231 233 235 238 238 237 236 234 233 232 232 233 234 236 238 241 241 241 240 239 241 242 242 239 238 239 240 241 242 244 245 246 247 248 251 252 254 256 257 256 255 253 252 252 252 252 252 252 253 254 256 259 262 267 272 276 278 280 282 284 286 286 285 285 285 286 287 289 293 297 300 302 305 308 310 312 310
229 231 232 232 234 232 229 229 231 232 235 237 237 238 237 236 235 233 231 232 232 233 235 238 240 242 242 242 241 243 244 243 241 239 239 240 241 243 245 247 248 250 253 255 257 259 260 259 258 256 253 251 251 251 251 251 251 253 255 258 262 266 270 273 276 279 281 283 285 285 286 288 289 288 287 289 294 296 298 301 304 305 307 307 304
227 228 227 228 231 231 230 231 231 232 235 237 238 238 238 237 237 235 232 231 232 233 234 235 238 241 243 244 244 243 244 246 245 242 240 240 242 244 246 248 250 252 255 258 260 261 261 261 262 261 259 256 254 252 250 249 250 251 254 258 262 267 270 272 275 278 279 280 282 285 288 290 289 289 292 294 295 295 298 301 304 307 309 309 307
226 225 223 224 227 228 230 232 232 233 236 237 238 239 238 238 238 236 232 231 233 234 234 234 237 241 244 246 247 246 245 246 246 245 244 243 244 246 247 249 252 255 257 259 261 262 263 264 265 265 265 262 260 257 254 251 250 251 254 257 261 265 269 272 274 276 278 280 282 285 287 288 288 290 293 294 295 296 300 304 307 309 309 309 311
225 222 219 219 222 226 228 232 233 233 234 237 238 238 238 238 239 237 234 233 234 234 234 235 237 240 243 247 247 246 245 245 246 246 246 245 245 248 249 250 251 255 257 258 260 262 265 268 269 269 269 267 264 261 258 255 253 252 253 256 260 264 268 272 275 277 278 280 282 283 283 284 286 290 292 294 296 300 303 305 307 307 306 308 313
224 222 217 214 217 223 226 229 231 231 233 235 236 236 236 237 238 237 236 235 235 233 232 234 236 238 241 243 245 245 245 245 247 246 243 244 246 248 250 251 251 253 256 258 261 265 268 269 269 269 270 269 268 265 262 259 256 255 255 258 262 266 270 273 275 276 278 280 281 281 282 284 287 290 292 295 298 301 302 303 302 301 302 307 311
224 221 216 213 215 221 226 228 229 230 232 234 234 235 235 236 237 238 240 239 235 232 232 234 236 239 240 241 242 244 244 244 246 248 248 250 252 252 252 253 253 255 258 261 265 267 267 267 267 268 269 270 269 265 261 259 258 256 257 259 263 267 270 272 274 275 277 279 280 281 283 286 287 290 294 297 299 299 299 298 296 295 298 302 303
225 221 215 212 214 219 224 227 228 229 230 231 232 232 233 236 239 241 241 238 233 231 233 235 238 239 239 238 239 241 243 246 251 257 259 259 257 255 254 253 254 256 258 261 263 265 266 267 268 269 271 272 272 270 268 265 263 262 262 264 266 268 270 272 274 276 277 278 280 281 282 283 286 290 293 294 294 293 292 291 291 293 295 297 298
223 219 213 211 214 218 222 225 227 227 227 228 229 230 232 237 240 237 233 229 227 226 228 230 233 236 238 240 243 247 251 255 257 258 259 257 256 255 254 254 255 257 258 259 261 264 267 270 271 272 272 272 272 273 274 273 271 269 270 271 271 272 273 275 276 277 278 279 280 281 280 280 281 283 285 286 286 286 286 288 289 292 293 294 296
222 217 212 211 214 217 220 223 225 224 224 225 226 228 233 235 231 225 222 222 223 225 228 231 236 241 245 249 252 253 254 255 254 253 253 253 254 254 253 254 256 257 258 259 261 262 265 268 270 271 271 270 270 269 270 270 270 271 273 274 274 274 275 275 276 277 279 281 284 286 287 286 284 283 283 285 285 284 286 290 292 294 295 295 296
219 215 212 212 214 216 218 220 221 220 219 221 223 227 230 228 221 220 224 229 232 235 239 243 245 247 249 249 250 250 249 249 249 249 248 248 249 250 250 251 253 256 258 260 260 262 263 265 268 270 270 269 267 265 264 264 264 266 269 270 269 271 273 274 276 278 280 283 286 287 287 287 287 286 283 282 282 283 286 289 292 294 295 294 295
215 213 213 213 213 214 215 217 217 215 216 218 222 226 225 221 219 224 232 238 241 242 242 242 243 244 244 243 242 243 243 242 243 244 243 244 245 247 249 250 251 252 254 257 260 262 263 264 266 267 268 268 265 262 261 261 262 265 268 268 268 270 273 273 274 275 277 280 284 282 279 279 282 283 282 282 284 286 288 289 290 291 292 293 295
216 214 212 210 210 211 213 213 212 211 214 217 221 223 223 222 224 231 236 240 242 240 238 237 237 238 238 237 236 236 238 238 240 241 242 244 245 246 249 251 252 251 251 254 258 262 264 266 267 266 267 268 267 265 265 267 270 273 274 274 276 278 278 278 278 278 279 283 284 281 277 276 280 282 283 283 284 286 287 288 289 290 291 293 295
217 217 212 206 205 207 209 209 208 209 212 216 219 222 225 226 228 232 235 236 237 237 234 233 233 234 235 235 235 235 236 238 240 241 243 245 247 249 251 252 254 254 253 253 255 258 261 263 263 262 262 263 264 268 274 277 277 277 276 277 280 283 285 286 285 281 279 280 281 279 278 279 281 282 282 281 282 284 286 286 287 288 290 292 293
216 217 213 209 207 206 204 204 205 208 211 216 219 222 225 227 226 227 228 229 230 231 232 230 230 231 233 235 237 238 238 240 241 243 245 247 249 251 253 253 253 253 253 254 255 256 257 258 258 259 260 261 263 269 274 276 276 278 280 280 279 280 282 285 285 282 280 279 279 281 282 281 279 278 279 281 283 285 286 286 288 289 290 290 290
214 214 212 211 211 209 202 199 202 206 211 215 219 222 225 225 223 222 223 225 228 230 231 230 229 229 230 233 236 238 240 242 243 245 247 248 250 252 254 253 251 250 251 253 254 254 256 259 260 261 262 262 264 267 270 273 274 276 277 276 276 276 276 277 280 283 282 279 278 279 278 275 275 276 279 281 283 284 284 286 288 287 287 288 289
214 215 214 212 212 210 203 198 200 206 211 215 219 221 223 223 222 222 222 225 229 231 231 229 228 226 227 229 232 236 240 242 244 246 247 249 251 253 252 251 249 249 249 250 253 257 261 264 264 264 265 266 266 267 269 271 273 274 273 273 272 273 273 275 278 279 278 276 277 277 275 275 278 280 280 281 281 282 283 285 285 285 286 289 292
213 216 217 214 211 209 203 199 201 206 211 214 217 219 220 221 220 219 220 223 226 226 224 224 224 225 227 231 234 238 241 243 246 248 250 252 253 254 253 251 250 251 253 255 258 262 264 265 265 266 268 269 269 268 268 269 272 274 275 273 271 271 272 273 274 272 270 270 271 271 271 273 276 276 275 276 278 280 283 284 284 284 287 290 294
211 215 217 214 212 210 203 199 203 208 210 212 214 215 216 217 218 218 218 220 220 219 219 222 226 230 234 238 241 243 245 248 250 252 253 254 256 257 257 256 255 255 257 259 261 262 261 262 265 268 268 268 267 268 269 271 274 276 275 274 273 273 274 273 271 268 267 268 268 267 269 271 272 271 271 273 276 279 282 284 284 285 288 292 296
204 206 210 210 211 210 205 201 204 209 211 212 214 215 216 218 220 219 218 217 218 219 222 225 230 234 237 241 244 246 249 251 252 253 254 255 257 258 259 259 259 259 260 260 261 261 263 264 266 266 265 264 264 266 267 269 271 273 274 272 270 267 266 266 264 261 261 264 266 268 269 270 272 273 274 275 275 276 278 281 283 286 290 294 296
205 198 199 201 202 203 203 203 205 208 209 211 214 217 219 221 222 222 221 221 222 225 227 230 233 237 240 243 245 248 250 251 252 253 255 256 256 257 257 258 260 261 262 263 264 264 266 266 265 265 266 267 267 267 266 266 268 272 274 273 270 268 267 266 266 266 266 267 270 272 272 273 275 275 273 272 273 274 277 280 284 289 292 294 296
216 206 201 200 199 198 199 201 204 207 210 211 213 215 218 220 222 223 224 226 228 230 232 235 238 241 244 246 248 249 250 251 252 253 254 254 253 253 253 254 256 258 259 260 261 262 263 264 264 265 266 267 266 264 264 266 270 272 272 271 271 271 270 270 271 273 272 270 268 268 269 270 270 269 268 270 273 277 280 284 287 290 293 295 297
224 217 214 213 207 203 201 202 204 207 211 214 216 218 219 219 221 223 225 228 231 233 235 238 242 245 248 249 250 249 249 250 250 251 251 252 252 251 251 251 252 254 256 257 258 260 262 263 263 263 262 261 260 261 264 268 271 271 268 265 264 264 264 264 265 266 265 264 265 266 267 268 268 269 270 273 276 279 283 287 291 293 294 295 297
221 216 215 216 213 208 205 204 206 211 214 215 217 220 221 221 222 224 227 229 232 234 238 241 245 247 249 248 248 247 246 246 246 247 248 249 249 249 249 249 250 252 254 257 258 260 260 261 260 260 259 260 263 266 269 270 270 268 264 262 261 262 262 263 263 265 266 268 269 270 270 271 272 274 275 276 279 282 286 290 292 292 293 295 296
211 210 214 219 220 216 208 203 205 211 215 215 216 218 220 222 224 225 227 230 234 237 240 241 243 243 244 244 244 244 243 244 245 246 246 246 247 246 246 247 248 249 251 253 255 256 257 258 259 261 263 265 268 270 269 268 266 264 261 259 260 262 264 265 267 269 270 271 272 272 273 274 275 277 279 281 283 286 287 288 289 290 292 294 294
205 202 210 217 221 223 220 215 211 210 208 206 210 213 214 217 221 224 225 228 233 237 240 239 236 235 238 240 242 242 243 243 244 245 244 243 243 244 245 246 248 250 252 253 254 256 258 261 263 265 267 268 267 266 264 261 259 258 257 258 259 261 263 266 267 268 270 272 274 275 276 276 277 279 281 283 284 285 285 286 287 289 291 291 292
199 193 196 202 208 216 222 222 220 218 214 208 209 212 211 213 220 223 223 222 224 229 235 237 233 232 236 240 242 243 244 245 246 247 247 245 243 244 246 248 250 251 252 253 256 259 262 263 265 266 265 264 262 259 257 256 257 259 260 261 261 262 264 266 269 271 273 275 276 276 276 277 279 281 282 283 284 285 287 288 289 289 290 290 292
188 190 188 181 186 204 210 200 189 204 217 220 221 219 215 213 217 221 222 223 225 229 235 238 237 235 237 239 238 237 239 242 243 242 241 241 243 245 247 249 251 252 253 254 257 259 260 261 261 261 260 259 258 257 257 259 261 263 265 265 265 266 267 269 271 273 275 275 276 277 278 280 281 282 283 284 285 287 288 289 289 289 290 290 291
143 161 174 175 181 199 202 189 171 171 186 201 213 217 216 215 218 220 219 218 220 224 227 230 231 230 231 232 231 229 230 235 238 236 233 237 244 249 251 252 253 254 255 256 257 257 257 257 257 257 257 257 257 258 260 262 263 265 266 267 267 268 269 270 271 273 274 275 277 278 279 281 281 282 283 284 285 287 288 288 288 289 289 290 290
148 128 132 150 172 188 194 197 201 201 195 189 192 201 207 212 219 223 224 222 222 223 225 226 230 234 236 238 239 236 233 236 241 244 244 246 249 250 250 250 251 251 252 254 254 255 255 255 255 255 256 257 258 259 260 261 262 264 266 268 270 271 273 273 275 275 276 277 279 280 281 281 282 282 283 284 286 286 286 286 287 288 289 289 290
Height
3179 3181 3183 3185 3187 3189 3191 3193 3195 3197 3199 3200 3202 3204 3206 3208 3210 3212 3214 3216 3217 3219 3221 3222 3224 3226 3228 3229 3230 3231 3233 3234 3235 3236 3238 3238 3239 3240 3240 3241 3242 3242 3243 3244 3246 3246 3247 3248 3249 3249 3250 3250 3251 3252 3252 3253 3253 3254 3254 3255 3255 3256 3256 3256 3256 3256 3256 3256 3256 3256 3256 3255 3255 3254 3253 3252 3252 3251 3250 3250 3249 3248 3247 3246 3244
3176 3178 3181 3183 3185 3187 3189 3191 3193 3195 3196 3198 3200 3202 3204 3206 3208 3210 3212 3214 3215 3217 3219 3221 3223 3224 3226 3227 3229 3230 3231 3233 3234 3235 3236 3237 3238 3238 3239 3240 3240 3241 3242 3243 3244 3245 3246 3247 3248 3249 3249 3250 3251 3251 3252 3252 3253 3253 3254 3254 3255 3255 3256 3256 3256 3256 3256 3256 3256 3256 3255 3255 3255 3254 3253 3253 3252 3250 3249 3248 3247 3246 3245 3244 3242
3174 3176 3179 3180 3183 3185 3187 3189 3190 3192 3194 3196 3198 3200 3202 3204 3206 3208 3210 3212 3213 3215 3217 3219 3221 3222 3224 3226 3227 3228 3229 3231 3232 3233 3235 3236 3237 3237 3237 3238 3239 3240 3240 3241 3242 3243 3245 3246 3247 3248 3249 3249 3250 3250 3251 3252 3252 3253 3253 3254 3254 3254 3254 3255 3255 3255 3255 3255 3255 3255 3255 3254 3254 3254 3252 3251 3250 3249 3248 3247 3246 3246 3244 3243 3240
3172 3174 3176 3178 3180 3182 3184 3186 3188 3190 3192 3194 3196 3198 3200 3202 3204 3206 3208 3210 3211 3213 3215 3217 3219 3220 3222 3224 3225 3227 3228 3229 3231 3232 3233 3234 3235 3236 3236 3236 3237 3238 3239 3239 3240 3241 3243 3244 3245 3246 3247 3248 3249 3249 3250 3251 3251 3252 3252 3252 3253 3253 3253 3253 3254 3254 3254 3254 3254 3254 3254 3253 3253 3253 3251 3250 3249 3247 3247 3246 3246 3245 3243 3241 3239
3170 3172 3174 3176 3177 3180 3182 3184 3185 3187 3189 3191 3194 3196 3198 3200 3202 3204 3206 3207 3209 3211 3213 3215 3216 3218 3220 3221 3223 3225 3226 3227 3229 3230 3231 3232 3233 3234 3234 3235 3235 3236 3237 3238 3238 3239 3240 3242 3243 3244 3245 3246 3247 3248 3249 3250 3250 3251 3251 3251 3252 3252 3252 3252 3251 3252 3252 3253 3253 3252 3252 3252 3252 3251 3250 3248 3247 3247 3246 3246 3245 3243 3241 3239 3237
3168 3169 3172 3173 3174 3177 3179 3181 3183 3185 3187 3189 3191 3194 3195 3197 3199 3201 3203 3205 3207 3208 3210 3212 3214 3216 3218 3220 3221 3223 3225 3226 3227 3228 3229 3230 3231 3232 3233 3233 3234 3235 3235 3236 3236 3237 3238 3239 3241 3242 3243 3244 3245 3246 3247 3248 3249 3249 3250 3250 3250 3250 3250 3250 3250 3250 3250 3250 3251 3250 3250 3250 3249 3249 3248 3246 3245 3245 3244 3244 3243 3242 3240 3237 3236
3166 3167 3169 3171 3172 3174 3176 3178 3180 3183 3185 3187 3189 3191 3193 3195 3197 3199 3201 3203 3204 3206 3207 3210 3212 3214 3216 3218 3220 3221 3223 3224 3225 3226 3227 3228 3229 3230 3231 3232 3232 3233 3233 3234 3235 3235 3236 3237 3238 3239 3240 3242 3243 3244 3245 3246 3247 3248 3248 3249 3249 3249 3249 3249 3248 3248 3247 3248 3248 3248 3247 3247 3247 3246 3245 3244 3244 3244 3243 3242 3242 3240 3237 3235 3234
3163 3165 3167 3168 3170 3172 3174 3176 3178 3180 3183 3185 3187 3188 3191 3192 3194 3197 3199 3200 3202 3203 3205 3207 3209 3211 3213 3216 3217 3218 3220 3221 3222 3224 3225 3226 3227 3228 3229 3230 3231 3231 3232 3232 3232 3233 3233 3234 3235 3237 3238 3239 3240 3242 3243 3244 3244 3245 3246 3247 3247 3247 3247 3247 3247 3246 3245 3245 3245 3245 3244 3245 3245 3244 3244 3243 3243 3243 3241 3240 3239 3238 3235 3233 3232
3161 3163 3165 3166 3168 3170 3172 3174 3176 3178 3180 3182 3184 3186 3188 3190 3192 3194 3196 3198 3200 3201 3202 3204 3206 3208 3210 3213 3215 3216 3217 3219 3220 3222 3223 3224 3225 3226 3228 3228 3229 3229 3230 3230 3231 3231 3231 3232 3233 3234 3235 3236 3238 3239 3240 3241 3242 3243 3244 3244 3245 3245 3245 3245 3245 3245 3244 3243 3243 3242 3242 3242 3243 3242 3242 3241 3241 3241 3240 3238 3237 3235 3234 3232 3231
3158 3161 3162 3164 3166 3168 3170 3172 3174 3176 3177 3180 3182 3183 3185 3188 3189 3191 3193 3196 3197 3199 3201 3202 3203 3205 3208 3209 3211 3213 3214 3216 3218 3220 3221 3223 3223 3224 3225 3226 3227 3227 3227 3228 3229 3229 3230 3230 3231 3231 3232 3234 3235 3236 3237 3238 3239 3240 3241 3242 3243 3243 3243 3243 3243 3243 3242 3241 3241 3240 3240 3241 3241 3240 3239 3239 3239 3239 3238 3236 3235 3234 3233 3231 3231
3155 3158 3160 3162 3164 3166 3168 3170 3172 3173 3175 3177 3179 3181 3183 3185 3187 3189 3191 3193 3195 3197 3199 3200 3201 3202 3205 3207 3208 3210 3211 3214 3216 3218 3219 3220 3221 3222 3223 3224 3225 3225 3225 3225 3226 3227 3228 3229 3229 3230 3230 3231 3232 3233 3235 3236 3237 3238 3239 3239 3240 3240 3241 3241 3241 3241 3240 3239 3238 3238 3238 3238 3239 3239 3238 3237 3237 3237 3236 3234 3232 3231 3230 3229 3228
3152 3156 3158 3160 3162 3164 3166 3168 3169 3171 3173 3175 3177 3179 3180 3182 3184 3186 3188 3190 3193 3195 3196 3198 3199 3200 3202 3204 3206 3207 3209 3211 3213 3215 3216 3218 3219 3220 3220 3221 3222 3223 3223 3223 3224 3225 3226 3227 3227 3228 3228 3229 3230 3231 3232 3233 3234 3235 3236 3237 3237 3238 3238 3239 3239 3239 3238 3237 3236 3236 3236 3236 3236 3236 3236 3236 3235 3235 3234 3233 3230 3228 3227 3226 3225
3149 3153 3155 3157 3160 3162 3164 3166 3167 3169 3171 3173 3175 3177 3178 3180 3181 3184 3186 3188 3190 3192 3194 3195 3197 3198 3200 3201 3203 3205 3207 3208 3210 3212 3214 3215 3216 3217 3218 3219 3219 3220 3221 3221 3222 3223 3224 3225 3225 3226 3227 3227 3228 3229 3230 3231 3232 3233 3234 3234 3235 3235 3236 3236 3236 3236 3236 3235 3234 3234 3234 3233 3234 3234 3234 3234 3234 3233 3232 3231 3229 3226 3225 3224 3223
3146 3149 3152 3155 3157 3159 3161 3163 3165 3167 3169 3171 3173 3174 3176 3177 3179 3181 3183 3185 3186 3189 3191 3193 3195 3196 3197 3199 3200 3202 3204 3206 3207 3209 3211 3213 3214 3214 3215 3216 3217 3217 3218 3219 3220 3221 3222 3223 3224 3224 3225 3225 3226 3227 3227 3229 3230 3230 3231 3232 3233 3234 3234 3234 3234 3234 3234 3234 3233 3232 3232 3231 3231 3232 3233 3232 3231 3230 3229 3228 3226 3224 3223 3222 3222
3143 3146 3149 3152 3154 3157 3159 3161 3163 3165 3167 3169 3170 3172 3173 3175 3177 3178 3180 3182 3184 3186 3188 3190 3192 3194 3195 3196 3198 3199 3201 3203 3205 3207 3209 3210 3211 3212 3213 3213 3214 3215 3216 3217 3218 3218 3219 3221 3222 3222 3223 3223 3224 3225 3225 3226 3227 3228 3229 3230 3231 3232 3232 3233 3233 3233 3232 3232 3231 3231 3231 3230 3229 3231 3231 3230 3229 3228 3226 3225 3223 3221 3220 3220 3219
3140 3143 3146 3149 3151 3154 3156 3159 3161 3163 3164 3166 3168 3169 3171 3173 3174 3176 3177 3179 3181 3183 3185 3187 3189 3191 3193 3194 3195 3197 3198 3200 3202 3205 3206 3208 3209 3210 3210 3211 3212 3213 3214 3214 3215 3216 3217 3218 3219 3220 3221 3222 3223 3223 3224 3224 3225 3226 3227 3228 3229 3230 3230 3231 3232 3231 3231 3231 3230 3230 3230 3229 3229 3230 3230 3229 3227 3226 3225 3224 3222 3220 3218 3218 3217
3138 3140 3143 3146 3148 3151 3154 3156 3158 3160 3162 3163 3165 3167 3169 3170 3172 3173 3175 3176 3178 3180 3182 3184 3186 3188 3189 3191 3193 3194 3196 3198 3200 3202 3204 3205 3206 3207 3208 3209 3210 3211 3211 3212 3213 3213 3214 3216 3217 3218 3219 3220 3221 3221 3222 3222 3223 3224 3225 3225 3226 3227 3228 3228 3229 3228 3228 3228 3228 3229 3229 3228 3228 3229 3229 3228 3227 3226 3226 3224 3223 3220 3218 3216 3214
3135 3137 3140 3143 3146 3148 3151 3153 3155 3157 3159 3161 3163 3164 3166 3168 3169 3171 3172 3174 3176 3178 3180 3182 3183 3185 3186 3188 3190 3192 3194 3195 3197 3199 3201 3202 3203 3204 3206 3206 3207 3208 3209 3210 3210 3211 3212 3213 3214 3215 3217 3218 3218 3219 3220 3220 3220 3221 3222 3222 3223 3224 3225 3225 3225 3225 3224 3224 3226 3228 3227 3226 3227 3227 3227 3227 3227 3226 3225 3223 3221 3218 3216 3214 3211
3131 3134 3137 3141 3143 3146 3148 3150 3152 3154 3156 3158 3160 3162 3164 3165 3167 3168 3170 3171 3173 3175 3177 3179 3180 3182 3183 3185 3187 3189 3191 3193 3194 3196 3198 3199 3200 3201 3202 3203 3204 3205 3206 3207 3208 3209 3209 3211 3212 3213 3214 3215 3216 3216 3217 3217 3218 3219 3219 3219 3220 3221 3222 3222 3222 3222 3221 3221 3223 3225 3225 3224 3224 3223 3223 3224 3224 3222 3221 3220 3217 3215 3214 3212 3210
3128 3131 3134 3137 3140 3143 3145 3147 3149 3151 3153 3155 3157 3159 3161 3163 3164 3166 3167 3169 3170 3172 3174 3175 3177 3179 3181 3182 3183 3185 3188 3189 3191 3193 3194 3196 3197 3198 3199 3200 3201 3202 3203 3204 3205 3206 3207 3208 3209 3210 3211 3212 3212 3213 3214 3215 3215 3216 3216 3216 3217 3218 3219 3219 3219 3219 3218 3217 3219 3221 3222 3222 3221 3219 3218 3218 3218 3216 3216 3215 3213 3212 3212 3211 3209
3125 3128 3131 3134 3136 3139 3142 3144 3146 3148 3149 3152 3154 3156 3158 3160 3161 3163 3164 3166 3167 3169 3170 3172 3174 3176 3178 3179 3180 3182 3184 3186 3188 3189 3191 3192 3194 3194 3195 3197 3198 3199 3200 3201 3201 3202 3204 3205 3206 3207 3208 3209 3209 3210 3211 3211 3212 3212 3213 3213 3214 3215 3215 3216 3216 3215 3214 3213 3214 3215 3217 3219 3219 3218 3216 3213 3212 3212 3212 3211 3210 3210 3210 3209 3208
3122 3124 3127 3130 3133 3136 3138 3141 3142 3144 3146 3148 3150 3153 3155 3157 3158 3160 3161 3163 3164 3166 3167 3169 3171 3173 3174 3176 3177 3178 3180 3182 3184 3186 3187 3189 3190 3191 3192 3193 3195 3196 3196 3197 3198 3199 3200 3201 3202 3204 3205 3206 3206 3207 3207 3208 3208 3209 3209 3210 3211 3211 3212 3212 3212 3212 3211 3210 3209 3209 3211 3212 3214 3215 3213 3211 3209 3208 3208 3208 3207 3207 3207 3208 3207
3119 3122 3124 3127 3129 3132 3135 3137 3139 3141 3143 3144 3147 3149 3151 3153 3155 3157 3158 3160 3161 3163 3164 3166 3168 3169 3171 3172 3174 3175 3177 3178 3180 3183 3184 3186 3187 3188 3189 3190 3191 3192 3193 3193 3194 3196 3197 3197 3198 3200 3201 3202 3203 3203 3204 3205 3205 3206 3206 3207 3207 3208 3208 3209 3209 3209 3208 3207 3206 3204 3204 3206 3207 3207 3208 3207 3206 3204 3203 3203 3203 3203 3204 3205 3206
3117 3119 3121 3124 3126 3129 3131 3133 3135 3137 3139 3140 3143 3145 3148 3150 3152 3153 3155 3157 3158 3159 3161 3163 3165 3166 3168 3169 3171 3172 3174 3175 3177 3179 3181 3183 3184 3185 3186 3187 3188 3189 3189 3190 3191 3192 3192 3193 3194 3196 3197 3198 3199 3200 3201 3201 3202 3203 3203 3203 3204 3204 3205 3205 3205 3205 3205 3204 3203 3201 3200 3200 3200 3200 3201 3202 3201 3199 3198 3198 3198 3197 3197 3197 3198
3113 3115 3118 3120 3122 3125 3127 3129 3131 3133 3135 3137 3139 3142 3144 3146 3148 3150 3152 3153 3154 3156 3158 3160 3161 3163 3165 3166 3168 3170 3171 3172 3174 3176 3178 3180 3181 3182 3183 3184 3185 3185 3186 3187 3187 3187 3188 3190 3191 3192 3193 3194 3195 3196 3197 3198 3199 3200 3200 3200 3200 3200 3201 3201 3202 3202 3201 3200 3200 3199 3198 3196 3195 3195 3196 3195 3195 3194 3193 3192 3191 3190 3189 3188 3187
3110 3112 3114 3116 3119 3121 3123 3125 3127 3129 3131 3133 3135 3138 3141 3143 3144 3146 3148 3149 3151 3152 3154 3156 3158 3160 3162 3164 3165 3167 3168 3169 3171 3173 3175 3177 3178 3180 3181 3182 3182 3182 3183 3183 3183 3184 3185 3187 3188 3189 3189 3190 3191 3192 3193 3194 3195 3196 3196 3196 3197 3197 3197 3198 3198 3197 3197 3196 3196 3195 3194 3193 3192 3192 3191 3190 3189 3189 3188 3186 3185 3184 3184 3183 3182
3106 3108 3110 3112 3114 3116 3118 3120 3123 3125 3127 3129 3131 3134 3137 3139 3140 3142 3144 3146 3147 3149 3150 3152 3154 3157 3159 3161 3162 3164 3165 3167 3168 3170 3172 3174 3176 3177 3178 3179 3180 3180 3180 3180 3180 3182 3183 3184 3184 3185 3186 3186 3187 3188 3189 3190 3191 3192 3193 3193 3193 3193 3194 3194 3193 3193 3192 3192 3191 3190 3189 3189 3189 3188 3187 3186 3185 3184 3183 3182 3181 3181 3181 3180 3179
3101 3104 3106 3108 3110 3112 3114 3116 3118 3120 3123 3125 3127 3130 3133 3135 3137 3138 3140 3142 3144 3145 3147 3149 3151 3153 3156 3158 3160 3161 3163 3164 3166 3167 3170 3172 3174 3175 3175 3176 3177 3177 3177 3177 3178 3179 3179 3180 3180 3181 3182 3183 3184 3184 3185 3186 3187 3188 3188 3189 3189 3189 3189 3189 3188 3188 3187 3186 3186 3185 3184 3184 3184 3183 3183 3182 3181 3180 3180 3179 3178 3178 3177 3176 3176
3096 3099 3101 3103 3105 3107 3110 3112 3114 3116 3119 3121 3123 3126 3129 3131 3133 3135 3136 3138 3140 3142 3144 3146 3149 3151 3153 3155 3157 3159 3160 3162 3164 3165 3167 3168 3170 3171 3172 3172 3173 3173 3174 3175 3175 3175 3175 3176 3177 3179 3179 3180 3180 3180 3181 3182 3183 3183 3184 3185 3185 3185 3184 3184 3183 3183 3182 3182 3181 3180 3178 3178 3178 3178 3178 3177 3177 3176 3176 3175 3175 3175 3174 3173 3172
3091 3093 3095 3097 3100 3102 3104 3107 3109 3111 3114 3116 3119 3123 3126 3128 3129 3131 3133 3135 3137 3140 3142 3144 3146 3148 3150 3152 3154 3156 3158 3160 3161 3162 3163 3164 3165 3167 3168 3168 3169 3170 3171 3171 3172 3172 3172 3173 3174 3176 3177 3177 3177 3177 3178 3178 3178 3178 3180 3181 3180 3180 3180 3179 3179 3178 3178 3177 3176 3175 3174 3173 3173 3173 3172 3172 3172 3172 3172 3172 3172 3172 3170 3169 3168
3085 3087 3090 3092 3094 3097 3099 3101 3104 3107 3109 3112 3116 3120 3122 3124 3127 3129 3131 3133 3136 3138 3140 3142 3144 3146 3148 3150 3151 3153 3155 3156 3157 3158 3159 3160 3161 3162 3164 3164 3165 3166 3167 3168 3168 3169 3169 3170 3171 3172 3173 3174 3174 3174 3175 3175 3174 3174 3175 3176 3176 3175 3174 3174 3174 3174 3173 3173 3173 3172 3171 3170 3170 3169 3168 3168 3168 3169 3169 3169 3169 3168 3167 3166 3165
3080 3083 3085 3086 3088 3091 3093 3095 3098 3101 3104 3108 3112 3116 3118 3121 3124 3126 3128 3131 3133 3136 3138 3140 3142 3144 3145 3146 3147 3149 3151 3152 3153 3154 3155 3156 3157 3158 3159 3161 3162 3162 3163 3164 3164 3165 3166 3166 3167 3167 3168 3169 3170 3170 3171 3171 3170 3170 3171 3171 3170 3170 3169 3169 3170 3170 3169 3169 3170 3169 3167 3166 3166 3165 3165 3164 3164 3165 3165 3165 3165 3165 3164 3163 3162
3076 3077 3078 3080 3081 3084 3086 3089 3093 3096 3100 3104 3108 3111 3114 3117 3121 3123 3126 3128 3131 3133 3135 3137 3138 3140 3141 3143 3144 3145 3147 3148 3149 3150 3151 3152 3153 3154 3155 3157 3158 3159 3160 3160 3160 3161 3162 3162 3163 3163 3163 3164 3165 3165 3166 3166 3166 3167 3166 3166 3166 3166 3164 3164 3165 3166 3164 3165 3166 3166 3164 3163 3163 3162 3162 3162 3161 3162 3162 3161 3161 3161 3160 3159 3159
3069 3069 3069 3071 3075 3078 3081 3084 3088 3092 3096 3100 3104 3108 3111 3114 3117 3120 3123 3125 3127 3130 3132 3133 3135 3136 3137 3139 3141 3142 3143 3144 3145 3146 3147 3148 3149 3150 3151 3153 3154 3155 3157 3157 3157 3158 3158 3159 3159 3159 3159 3159 3160 3160 3161 3162 3162 3163 3162 3162 3162 3161 3159 3158 3161 3161 3160 3161 3163 3162 3161 3160 3160 3159 3159 3159 3159 3158 3157 3156 3156 3156 3157 3156 3155
3065 3067 3067 3067 3070 3074 3077 3080 3083 3088 3091 3096 3101 3104 3106 3109 3113 3117 3120 3122 3124 3126 3128 3129 3131 3132 3134 3135 3137 3138 3140 3141 3142 3143 3144 3145 3146 3147 3148 3149 3150 3151 3153 3154 3154 3154 3154 3155 3155 3155 3155 3156 3156 3156 3157 3158 3158 3158 3158 3158 3159 3158 3155 3155 3158 3159 3157 3158 3158 3157 3156 3156 3156 3155 3155 3155 3154 3153 3153 3153 3151 3151 3152 3153 3151
3066 3068 3069 3069 3069 3071 3073 3075 3079 3084 3088 3092 3096 3098 3100 3104 3110 3114 3116 3117 3119 3121 3123 3125 3127 3129 3131 3132 3133 3135 3136 3138 3139 3140 3141 3142 3143 3144 3144 3145 3146 3147 3148 3149 3150 3150 3150 3151 3151 3151 3151 3152 3153 3153 3153 3153 3153 3154 3155 3156 3156 3155 3152 3151 3153 3153 3153 3153 3152 3152 3152 3153 3152 3151 3151 3151 3150 3149 3148 3148 3147 3146 3147 3148 3147
3063 3063 3065 3068 3069 3069 3069 3069 3073 3079 3084 3086 3090 3093 3096 3101 3106 3109 3110 3111 3114 3117 3119 3121 3123 3126 3127 3129 3130 3131 3133 3134 3135 3136 3137 3138 3139 3140 3141 3142 3143 3143 3144 3145 3145 3145 3146 3146 3147 3147 3147 3148 3149 3149 3149 3149 3150 3151 3152 3152 3151 3150 3148 3147 3148 3148 3148 3148 3148 3148 3148 3149 3149 3148 3147 3146 3146 3145 3144 3143 3143 3143 3143 3143 3142
3060 3060 3060 3062 3064 3065 3066 3066 3069 3075 3079 3082 3085 3089 3093 3097 3101 3104 3106 3108 3111 3113 3116 3118 3120 3122 3124 3125 3127 3128 3129 3130 3132 3133 3134 3135 3136 3137 3138 3139 3139 3139 3140 3140 3141 3141 3142 3143 3143 3143 3144 3144 3145 3145 3146 3146 3145 3146 3146 3146 3146 3145 3144 3145 3146 3145 3143 3144 3144 3144 3144 3144 3144 3144 3143 3142 3141 3140 3140 3139 3139 3139 3139 3139 3138
3054 3056 3057 3058 3060 3061 3061 3062 3065 3069 3074 3078 3081 3085 3088 3092 3097 3100 3103 3105 3107 3110 3113 3115 3117 3119 3121 3122 3124 3125 3126 3127 3128 3129 3130 3131 3132 3133 3134 3135 3135 3135 3136 3137 3138 3139 3139 3139 3139 3139 3140 3140 3141 3141 3142 3142 3142 3142 3141 3141 3141 3141 3141 3142 3142 3140 3139 3139 3140 3140 3140 3140 3141 3140 3140 3139 3137 3135 3135 3136 3136 3136 3135 3135 3134
3048 3052 3055 3058 3060 3061 3059 3059 3061 3065 3070 3074 3077 3080 3084 3088 3092 3095 3098 3101 3104 3107 3110 3112 3114 3116 3117 3118 3119 3120 3122 3123 3125 3125 3126 3126 3127 3128 3130 3131 3132 3132 3133 3134 3134 3135 3135 3135 3135 3136 3137 3136 3137 3137 3138 3139 3139 3138 3137 3136 3137 3137 3137 3136 3136 3136 3134 3134 3134 3135 3135 3136 3136 3136 3135 3135 3133 3132 3132 3132 3132 3132 3132 3131 3130
3045 3050 3053 3056 3058 3059 3057 3056 3059 3063 3067 3071 3074 3077 3081 3084 3087 3091 3094 3098 3101 3104 3106 3108 3110 3112 3113 3114 3115 3116 3118 3119 3120 3121 3121 3122 3123 3125 3125 3126 3127 3128 3128 3129 3130 3130 3131 3131 3132 3132 3132 3132 3133 3135 3135 3135 3134 3133 3132 3131 3131 3132 3132 3130 3130 3130 3129 3129 3130 3131 3131 3131 3131 3131 3131 3130 3130 3129 3129 3128 3128 3128 3127 3127 3126
3042 3046 3050 3051 3053 3054 3054 3054 3057 3060 3064 3067 3071 3074 3078 3081 3084 3088 3091 3094 3097 3099 3102 3103 3105 3107 3108 3109 3111 3112 3113 3114 3115 3116 3117 3118 3119 3120 3120 3121 3122 3123 3124 3125 3125 3126 3127 3127 3127 3128 3129 3131 3132 3133 3132 3130 3129 3129 3128 3127 3126 3126 3127 3125 3124 3124 3124 3125 3127 3128 3127 3127 3127 3128 3127 3126 3126 3125 3125 3125 3124 3123 3123 3122 3122
3040 3043 3046 3047 3047 3048 3049 3051 3054 3057 3061 3064 3067 3070 3074 3078 3081 3085 3088 3091 3093 3095 3097 3099 3100 3102 3103 3105 3106 3108 3109 3110 3111 3112 3113 3114 3115 3116 3116 3117 3117 3118 3119 3120 3120 3121 3122 3122 3123 3125 3126 3127 3127 3128 3127 3126 3125 3124 3124 3124 3123 3123 3122 3121 3121 3121 3121 3122 3123 3123 3123 3123 3123 3124 3123 3122 3121 3121 3121 3120 3120 3119 3118 3118 3118
3039 3040 3042 3043 3043 3043 3044 3046 3050 3054 3058 3062 3065 3068 3071 3075 3078 3081 3084 3086 3088 3091 3093 3095 3096 3097 3099 3100 3102 3103 3104 3106 3107 3108 3109 3109 3110 3111 3112 3113 3113 3114 3114 3115 3116 3117 3118 3118 3118 3120 3120 3120 3121 3122 3121 3121 3120 3120 3120 3119 3119 3118 3118 3118 3118 3118 3118 3118 3118 3119 3119 3119 3119 3119 3119 3118 3118 3117 3117 3116 3116 3115 3114 3114 3114
3036 3038 3039 3040 3041 3041 3042 3044 3048 3052 3056 3059 3062 3065 3068 3071 3074 3077 3079 3081 3084 3086 3088 3090 3091 3093 3095 3096 3098 3099 3100 3101 3102 3103 3104 3105 3106 3107 3108 3109 3110 3110 3111 3112 3113 3113 3114 3114 3114 3114 3115 3115 3115 3116 3116 3116 3116 3116 3116 3115 3115 3114 3114 3115 3115 3115 3115 3115 3115 3115 3116 3116 3115 3115 3114 3114 3114 3113 3113 3113 3112 3111 3110 3110 3109
3036 3038 3039 3040 3041 3042 3042 3044 3048 3051 3055 3057 3061 3063 3066 3068 3070 3073 3075 3077 3079 3082 3084 3085 3087 3089 3090 3092 3094 3095 3096 3097 3098 3099 3100 3101 3102 3103 3104 3105 3106 3107 3108 3109 3109 3109 3109 3109 3109 3110 3110 3110 3111 3111 3111 3112 3112 3112 3112 3112 3112 3111 3112 3112 3111 3111 3111 3111 3111 3111 3112 3112 3111 3111 3110 3110 3110 3110 3110 3109 3109 3107 3106 3105 3104
3036 3037 3039 3040 3041 3043 3044 3045 3048 3052 3055 3057 3060 3062 3065 3067 3068 3070 3072 3074 3076 3078 3080 3082 3083 3085 3087 3089 3090 3092 3093 3094 3095 3095 3096 3097 3098 3099 3101 3102 3102 3103 3103 3103 3103 3103 3104 3104 3104 3105 3105 3106 3106 3107 3107 3107 3108 3108 3108 3108 3109 3109 3109 3108 3108 3107 3107 3108 3108 3108 3107 3107 3107 3107 3106 3106 3106 3106 3105 3105 3105 3104 3103 3101 3100
3035 3037 3039 3039 3041 3042 3044 3046 3049 3052 3055 3057 3059 3062 3064 3066 3067 3068 3070 3072 3073 3075 3077 3079 3081 3082 3084 3086 3087 3089 3090 3091 3092 3092 3093 3094 3095 3096 3097 3098 3098 3098 3098 3098 3098 3099 3099 3099 3100 3100 3100 3101 3101 3102 3102 3103 3103 3104 3104 3105 3105 3105 3105 3104 3104 3104 3104 3104 3104 3103 3103 3103 3103 3103 3102 3102 3102 3101 3101 3101 3100 3099 3098 3097 3096
3036 3037 3039 3040 3041 3042 3044 3046 3048 3052 3055 3057 3059 3061 3063 3064 3065 3066 3067 3069 3071 3073 3075 3077 3079 3080 3081 3083 3084 3085 3086 3087 3088 3088 3089 3090 3091 3092 3093 3093 3094 3094 3094 3094 3095 3095 3095 3095 3096 3096 3096 3097 3097 3098 3098 3099 3099 3100 3100 3101 3101 3101 3101 3101 3100 3100 3100 3100 3099 3099 3099 3099 3099 3099 3098 3097 3097 3097 3097 3096 3095 3094 3093 3092 3090
3038 3039 3040 3041 3042 3044 3045 3047 3049 3052 3055 3057 3058 3059 3061 3062 3063 3064 3065 3066 3068 3069 3071 3073 3075 3077 3078 3079 3079 3080 3082 3083 3084 3084 3084 3084 3086 3087 3088 3089 3089 3090 3090 3091 3091 3091 3091 3092 3092 3092 3093 3093 3094 3094 3095 3095 3095 3096 3096 3096 3097 3097 3097 3097 3097 3096 3096 3096 3095 3095 3095 3094 3094 3093 3093 3093 3093 3092 3091 3090 3088 3087 3086 3085 3084
3040 3040 3041 3042 3043 3044 3047 3049 3051 3053 3055 3056 3057 3058 3059 3060 3061 3063 3063 3065 3066 3067 3069 3071 3073 3074 3075 3075 3076 3077 3078 3079 3080 3080 3080 3080 3082 3083 3084 3084 3085 3085 3086 3086 3086 3087 3088 3088 3088 3089 3089 3090 3090 3090 3091 3091 3091 3091 3092 3092 3092 3092 3092 3092 3092 3092 3092 3091 3091 3091 3091 3090 3089 3088 3088 3088 3088 3087 3085 3084 3082 3081 3080 3079 3078